This is the latest recevied weather packets stored in our database for station/object K4AGR-13. If no packets are shown the sender has not sent any weather packets the latest 10 day(s).
| Time | Temp. | Humidity | Pressure | Rain* | Wind** | Luminosity | Snow |
|---|---|---|---|---|---|---|---|
| 1777759395 | 22.78° C | 46% | 1012.1 hPa | 0 mm | - | 403 W/m² | - |
| 1777759092 | 22.22° C | 49% | 1012.1 hPa | 0 mm | - | 423 W/m² | - |
| 1777758789 | 22.22° C | 50% | 1012 hPa | 0 mm | - | 442 W/m² | - |
| 1777758486 | 22.78° C | 47% | 1012 hPa | 0 mm | - | 457 W/m² | - |
| 1777758182 | 22.78° C | 47% | 1012.1 hPa | 0 mm | - | 459 W/m² | - |
| 1777757880 | 23.33° C | 49% | 1011.9 hPa | 0 mm | - | 496 W/m² | - |
| 1777757577 | 23.33° C | 47% | 1012.1 hPa | 0 mm | - | 532 W/m² | - |
| 1777757276 | 22.78° C | 50% | 1011.9 hPa | 0 mm | - | 604 W/m² | - |
| 1777756974 | 22.78° C | 50% | 1011.9 hPa | 0 mm | - | 586 W/m² | - |
| 1777756669 | 22.78° C | 48% | 1011.9 hPa | 0 mm | - | 607 W/m² | - |
| 1777756366 | 22.78° C | 49% | 1011.9 hPa | 0 mm | - | 626 W/m² | - |
| 1777756064 | 22.78° C | 49% | 1011.8 hPa | 0 mm | - | 651 W/m² | - |
| 1777755761 | 22.78° C | 49% | 1011.9 hPa | 0 mm | - | 647 W/m² | - |
| 1777755458 | 22.78° C | 50% | 1011.9 hPa | 0 mm | - | 193 W/m² | - |
| 1777755154 | 23.33° C | 47% | 1011.8 hPa | 0 mm | - | 727 W/m² | - |
| 1777754851 | 23.33° C | 46% | 1012 hPa | 0 mm | - | 753 W/m² | - |
| 1777754549 | 22.78° C | 48% | 1011.9 hPa | 0 mm | - | 769 W/m² | - |
| 1777754246 | 22.78° C | 51% | 1011.9 hPa | 0 mm | - | 771 W/m² | - |
| 1777753944 | 21.67° C | 52% | 1011.9 hPa | 0 mm | - | 793 W/m² | - |
| 1777753638 | 21.67° C | 53% | 1012 hPa | 0 mm | - | 817 W/m² | - |
| 1777753336 | 21.67° C | 56% | 1012.3 hPa | 0 mm | - | 748 W/m² | - |
| 1777753034 | 21.67° C | 54% | 1012.2 hPa | 0 mm | - | 262 W/m² | - |
| 1777752730 | 21.67° C | 54% | 1012.3 hPa | 0 mm | - | 926 W/m² | - |
| 1777752426 | 21.67° C | 54% | 1012.3 hPa | 0 mm | - | 246 W/m² | - |
| 1777752122 | 22.22° C | 55% | 1012.4 hPa | 0 mm | - | 954 W/m² | - |
* Rain latest hour (hover to see other rain measurements)
** Current wind speed in m/s (hover to see current wind gust speed)